Regional Weather Roundup
Issued by NWS

Home | Current Version | Previous Version | Graphics & Text | Print | Product List | Glossary On
Versions: 1 2 3 4 5 6 7 8 9 10 11 12 13 14 15 16 17 18 19 20 21 22 23 24 25 26 27 28 29 30 31 32 33 34 35 36 37 38 39 40 41 42 43 44 45 46 47 48 49 50
000
ASUS45 KTFX 020304
RWRMT
MONTANA HOURLY WEATHER ROUNDUP
NATIONAL WEATHER SERVICE GREAT FALLS MT
804 PM MST SUN MAR 1 2015

NOTE: "FAIR" INDICATES FEW OR NO CLOUDS BELOW 12000 FEET WITH NO
SIGNIFICANT WEATHER AND/OR OBSTRUCTIONS TO VISIBILITY.

* THESE STATIONS ARE NOT UNDER NWS QUALITY CONTROL. THEY DO NOT
   REPORT WEATHER SUCH AS PRECIPITATION OR FOG.

MTZ001>007-043-020400-
WEST OF THE DIVIDE
CITY           SKY/WX    TMP DP  RH WIND       PRES   REMARKS
KALISPELL      CLEAR     21  16  81 CALM      29.99F
MISSOULA       MOCLDY    30  12  47 CALM      29.99F
BUTTE          PTCLDY    25   7  46 S5        29.95F WCI  19
MULLAN PASS    PTCLDY    25   1  35 W5        29.89F WCI  19
* ANACONDA     MOCLDY    25  10  53 S6         N/A   WCI  18
* ESSEX        N/A       22   8  55 S1         N/A
* LINCOLN      N/A       26   8  46 NE2        N/A
* LOOKOUT PASS N/A       26  10  51 VRB2       N/A
* POLSON       N/A       26   9  48 N/A        N/A
* RONAN APT    PTCLDY    30  21  69 N/A        N/A
* SEELEY LAKE  N/A       23   8  52 N/A        N/A
* THOMP F APT  PTCLDY    20   0  41 NE4        N/A
$$

MTZ008-052>055-020400-
SOUTHWEST MONTANA
CITY           SKY/WX    TMP DP  RH WIND       PRES   REMARKS
BOZEMAN        PTCLDY    18  10  71 SE6       30.01F WCI  10
DILLON         PTCLDY    23   3  42 CALM      29.96F
* W YELLOWSTON PTCLDY    14   0  53 N/A        N/A
* THREE FORKS  PTCLDY    21   9  60 N/A        N/A
* BOULDER HILL N/A       21   0  40 S9         N/A   WCI  11
* MONIDA PASS  N/A       19  -3  37 SE4        N/A
* RAYNOLDS PAS N/A       16  -2  45 SE4        N/A
* WHITEHALL    N/A       27   7  42 E5         N/A   WCI  21
* WISE RIVER   N/A       23   2  40 E2G11      N/A
$$

MTZ009>010-012-014-046-048-049-054-020400-
EAST SLOPES AND CENTRAL MONTANA
CITY           SKY/WX    TMP DP  RH WIND       PRES   REMARKS
CUT BANK       CLOUDY    27  18  69 S6        29.89F WCI  20
GREAT FALLS    MOCLDY    30  10  43 S18       29.93F WCI  18
HELENA         PTCLDY    28  12  51 CALM      29.98F
* DEARBORN     N/A       33   9  36 SW9G16     N/A   WCI  25
* EAST GLACIER N/A       27   2  34 W26G34     N/A   WCI  12
* MONARCH      N/A       23  -2  33 S6G11      N/A   WCI  16
* PENDROY      N/A       26  18  72 SW6        N/A   WCI  19
* ROGERS PASS  N/A       23   5  46 NE4G11     N/A
* SWEET GRASS  N/A       29  12  49 S16        N/A   WCI  17
$$

MTZ011-013-016-021-035-040-045-047-050-051-020400-
NORTH CENTRAL MONTANA
CITY           SKY/WX    TMP DP  RH WIND       PRES   REMARKS
HAVRE          PTCLDY    21  10  62 E6        30.01F WCI  13
LEWISTOWN      PTCLDY    19   7  59 SE8       29.99F WCI   9
* N BAR RANCH  CLEAR     23   1  38 NE7       30.02F WCI  15
* CHESTER      N/A       27  15  61 SE10G17    N/A   WCI  18
* DENTON       N/A       26   9  48 SE17       N/A   WCI  13
* GEYSER       N/A       16   9  74 SW4        N/A
* JUDITH GAP   N/A       15   4  61 SE9G14     N/A   WCI   3
* LOMA         N/A       27  15  61 E9G14      N/A   WCI  18
$$

MTZ017>020-022>027-061-062-020400-
NORTHEAST MONTANA
CITY           SKY/WX    TMP DP  RH WIND       PRES   REMARKS
GLASGOW        CLEAR     18   9  68 SE10      30.17F WCI   6
GLENDIVE       CLEAR     18   9  68 S6        30.25F WCI  10
JORDAN         CLEAR     18  10  71 S7        30.15F WCI   9
SIDNEY         CLEAR     16  10  77 S6        30.29F WCI   7
WOLF POINT     CLEAR     18   9  68 S3        30.23F
* BEAVER HILL  N/A       15   6  67 SE9        N/A   WCI   3
* CIRCLE       N/A       17   9  71 N/A        N/A
* LINDSAY DVD  N/A       11   5  77 N/A        N/A
* NAVAJO       N/A       14   5  67 S6         N/A   WCI   5
* SACO         N/A       20   8  59 E11        N/A   WCI   8
$$

MTZ028>042-056>058-020400-
SOUTHCENTRAL AND SOUTHEAST MONTANA
CITY           SKY/WX    TMP DP  RH WIND       PRES   REMARKS
BAKER          CLEAR      5   1  83 S5        30.25S WCI  -5
BILLINGS       FAIR      25   5  42 S9        30.09F WCI  16
LIVINGSTON     CLEAR     21   9  60 CALM      30.01F
MILES CITY     CLEAR     18   9  68 SE7       30.21F WCI   9
* LAUREL APT   CLEAR     25   1  35 N/A        N/A
* ROUNDUP APT  CLEAR     27  -2  28 N/A        N/A
* ALZADA       N/A       12   5  73 E4         N/A
* HYSHAM       N/A       22   6  50 E4G9       N/A
* LAME DEER    N/A       16   7  67 SE7G12     N/A   WCI   6
* REED POINT   N/A       22   8  55 N/A        N/A
* ROSCOE HILL  N/A       17  -4  39 S4         N/A
$$

REGIONAL REPORTS...DAKOTAS
CITY           SKY/WX    TMP DP  RH WIND       PRES   REMARKS
WILLISTON      PTCLDY     5   0  80 CALM      30.27F
DICKINSON      CLEAR      9   5  84 S7        30.26S WCI  -2
BEACH          CLEAR      5   1  83 S7        30.26F WCI  -7
CROSBY         CLEAR      0  -2  91 S8        30.27S WCI -14
WATFORD CITY   CLEAR      7   3  83 SW5       30.26F WCI  -2
BISMARCK       CLEAR      7   1  76 VRB5      30.36S WCI  -2
GRAND FORKS    PTCLDY    10   3  73 W8        30.32S WCI  -2
FARGO          PTCLDY     9   3  76 W7        30.37R WCI  -2
BUFFALO SD     PTCLDY    18   9  68 SE5       30.20S WCI  11
RAPID CITY     CLEAR      9   3  76 CALM      30.31S
$$

REGIONAL REPORTS...WYOMING/IDAHO/WASHINGTON
CITY           SKY/WX    TMP DP  RH WIND       PRES   REMARKS
GILLETTE       CLEAR     12   5  73 S10       30.16F WCI  -1
SHERIDAN       PTCLDY    12   3  67 S5        30.12F WCI   4
CODY           PTCLDY    19  12  74 S12       30.05F WCI   6
YELLOWSTONE LA PTCLDY     0  -8  68 CALM      30.00S
SALMON         CLEAR     27  12  53 CALM      29.98F
MULLAN PASS    PTCLDY    25   1  35 W5        29.89S WCI  19
SAND POINT     MOCLDY    32  19  59 CALM      30.00F
SPOKANE        CLOUDY    37  12  36 S3        29.97F

$$



USA.gov is the U.S. government's official web portal to all federal, state and local government web resources and services.